TimeEDT,TemperatureF,Dew PointF,Humidity,Sea Level PressureIn,VisibilityMPH,Wind Direction,Wind SpeedMPH,Gust SpeedMPH,PrecipitationIn,Events,Conditions,WindDirDegrees,DateUTC
12:15 AM,68.0,66.2,94,29.91,10.0,Calm,Calm,-,N/A,,Clear,0,2013-08-28 04:15:00
12:35 AM,66.2,66.2,100,29.91,10.0,Calm,Calm,-,N/A,,Clear,0,2013-08-28 04:35:00
12:55 AM,68.0,66.2,94,29.91,10.0,Calm,Calm,-,N/A,,Clear,0,2013-08-28 04:55:00
1:15 AM,66.2,64.4,94,29.90,10.0,Calm,Calm,-,N/A,,Clear,0,2013-08-28 05:15:00
1:35 AM,66.2,64.4,94,29.90,10.0,Calm,Calm,-,N/A,,Clear,0,2013-08-28 05:35:00
1:55 AM,66.2,62.6,88,29.89,10.0,Calm,Calm,-,N/A,,Clear,0,2013-08-28 05:55:00
2:15 AM,66.2,64.4,94,29.88,10.0,Calm,Calm,-,N/A,,Clear,0,2013-08-28 06:15:00
2:35 AM,66.2,64.4,94,29.88,10.0,Calm,Calm,-,N/A,,Clear,0,2013-08-28 06:35:00
2:55 AM,64.4,62.6,94,29.88,10.0,Calm,Calm,-,N/A,,Clear,0,2013-08-28 06:55:00
3:15 AM,64.4,62.6,94,29.87,10.0,Calm,Calm,-,N/A,,Clear,0,2013-08-28 07:15:00
3:35 AM,64.4,62.6,94,29.87,10.0,Calm,Calm,-,N/A,,Clear,0,2013-08-28 07:35:00
3:55 AM,64.4,62.6,94,29.87,10.0,Calm,Calm,-,N/A,,Clear,0,2013-08-28 07:55:00
4:15 AM,64.4,62.6,94,29.87,10.0,Calm,Calm,-,N/A,,Clear,0,2013-08-28 08:15:00
4:35 AM,64.4,62.6,94,29.87,10.0,Calm,Calm,-,N/A,,Clear,0,2013-08-28 08:35:00
4:55 AM,64.4,62.6,94,29.87,10.0,Calm,Calm,-,N/A,,Clear,0,2013-08-28 08:55:00
5:15 AM,64.4,64.4,100,29.87,10.0,Calm,Calm,-,N/A,,Clear,0,2013-08-28 09:15:00
5:35 AM,64.4,62.6,94,29.87,10.0,Calm,Calm,-,N/A,,Clear,0,2013-08-28 09:35:00
5:55 AM,64.4,62.6,94,29.87,8.0,Calm,Calm,-,N/A,,Clear,0,2013-08-28 09:55:00
6:15 AM,64.4,60.8,88,29.88,10.0,Calm,Calm,-,N/A,,Clear,0,2013-08-28 10:15:00
6:35 AM,64.4,62.6,94,29.88,10.0,Calm,Calm,-,N/A,,Clear,0,2013-08-28 10:35:00
6:55 AM,64.4,62.6,94,29.89,10.0,Calm,Calm,-,N/A,,Clear,0,2013-08-28 10:55:00
7:15 AM,68.0,64.4,88,29.88,10.0,Calm,Calm,-,N/A,,Clear,0,2013-08-28 11:15:00
7:35 AM,69.8,66.2,88,29.88,10.0,Calm,Calm,-,N/A,,Clear,0,2013-08-28 11:35:00
7:55 AM,73.4,68.0,83,29.88,10.0,Calm,Calm,-,N/A,,Clear,0,2013-08-28 11:55:00
8:15 AM,71.6,69.8,94,29.89,10.0,Calm,Calm,-,N/A,,Scattered Clouds,0,2013-08-28 12:15:00
8:35 AM,73.4,69.8,88,29.88,10.0,Calm,Calm,-,N/A,,Overcast,0,2013-08-28 12:35:00
8:55 AM,73.4,69.8,88,29.89,10.0,Calm,Calm,-,N/A,,Overcast,0,2013-08-28 12:55:00
9:15 AM,75.2,69.8,83,29.89,10.0,Calm,Calm,-,N/A,,Scattered Clouds,0,2013-08-28 13:15:00
9:35 AM,78.8,69.8,74,29.88,10.0,Calm,Calm,-,N/A,,Clear,0,2013-08-28 13:35:00
9:55 AM,82.4,69.8,66,29.88,10.0,Calm,Calm,-,N/A,,Partly Cloudy,0,2013-08-28 13:55:00
10:15 AM,82.4,69.8,66,29.89,10.0,Calm,Calm,-,N/A,,Scattered Clouds,0,2013-08-28 14:15:00
10:35 AM,82.4,71.6,70,29.89,10.0,Calm,Calm,-,N/A,,Partly Cloudy,0,2013-08-28 14:35:00
10:55 AM,82.4,71.6,70,29.89,10.0,SE,3.5,-,N/A,,Clear,130,2013-08-28 14:55:00
11:15 AM,82.4,71.6,70,29.90,10.0,SE,3.5,-,N/A,,Scattered Clouds,130,2013-08-28 15:15:00
11:35 AM,80.6,71.6,74,29.89,10.0,SSE,5.8,-,N/A,,Mostly Cloudy,160,2013-08-28 15:35:00
11:55 AM,80.6,71.6,74,29.89,10.0,South,4.6,-,N/A,,Partly Cloudy,180,2013-08-28 15:55:00
12:15 PM,78.8,69.8,74,29.88,10.0,South,6.9,-,N/A,,Clear,190,2013-08-28 16:15:00
12:35 PM,77.0,71.6,83,29.88,10.0,Calm,Calm,-,N/A,,Clear,0,2013-08-28 16:35:00
12:55 PM,75.2,73.4,94,29.88,9.0,Calm,Calm,-,0.01,,Mostly Cloudy,0,2013-08-28 16:55:00
1:15 PM,75.2,73.4,94,29.88,8.0,Calm,Calm,-,0.02,,Overcast,0,2013-08-28 17:15:00
1:35 PM,75.2,73.4,94,29.88,6.0,Calm,Calm,-,0.02,,Overcast,0,2013-08-28 17:35:00
1:55 PM,75.2,73.4,94,29.88,7.0,WSW,4.6,-,0.02,,Scattered Clouds,240,2013-08-28 17:55:00
2:15 PM,75.2,73.4,94,29.88,7.0,SW,3.5,-,N/A,,Partly Cloudy,220,2013-08-28 18:15:00
2:35 PM,77.0,73.4,89,29.88,9.0,Calm,Calm,-,N/A,,Mostly Cloudy,0,2013-08-28 18:35:00
2:55 PM,78.8,73.4,83,29.87,8.0,SW,3.5,-,N/A,,Scattered Clouds,230,2013-08-28 18:55:00
3:15 PM,78.8,73.4,83,29.86,10.0,WSW,5.8,-,N/A,,Partly Cloudy,250,2013-08-28 19:15:00
3:35 PM,78.8,71.6,78,29.86,10.0,West,4.6,-,N/A,,Partly Cloudy,270,2013-08-28 19:35:00
3:55 PM,78.8,71.6,78,29.86,10.0,Calm,Calm,-,N/A,,Partly Cloudy,0,2013-08-28 19:55:00
4:15 PM,78.8,71.6,78,29.85,9.0,Calm,Calm,-,N/A,,Scattered Clouds,0,2013-08-28 20:15:00
4:35 PM,78.8,71.6,78,29.85,9.0,West,3.5,-,N/A,,Partly Cloudy,270,2013-08-28 20:35:00
4:55 PM,78.8,71.6,78,29.85,10.0,Calm,Calm,-,N/A,,Partly Cloudy,0,2013-08-28 20:55:00
5:15 PM,78.8,71.6,78,29.85,10.0,Calm,Calm,-,N/A,,Partly Cloudy,0,2013-08-28 21:15:00
5:35 PM,78.8,71.6,78,29.85,10.0,Calm,Calm,-,N/A,,Clear,0,2013-08-28 21:35:00
5:55 PM,77.0,73.4,89,29.85,8.0,Calm,Calm,-,N/A,,Mostly Cloudy,0,2013-08-28 21:55:00
6:15 PM,77.0,73.4,89,29.85,8.0,Calm,Calm,-,N/A,,Partly Cloudy,0,2013-08-28 22:15:00
6:35 PM,77.0,73.4,89,29.84,8.0,Calm,Calm,-,N/A,,Clear,0,2013-08-28 22:35:00
6:55 PM,75.2,73.4,94,29.84,6.0,Calm,Calm,-,N/A,,Scattered Clouds,0,2013-08-28 22:55:00
7:15 PM,75.2,73.4,94,29.85,5.0,ENE,3.5,-,N/A,,Mostly Cloudy,60,2013-08-28 23:15:00
7:35 PM,75.2,73.4,94,29.85,6.0,ENE,3.5,-,N/A,,Overcast,60,2013-08-28 23:35:00
7:55 PM,73.4,73.4,100,29.86,6.0,Calm,Calm,-,N/A,,Scattered Clouds,0,2013-08-28 23:55:00
8:15 PM,73.4,71.6,94,29.87,5.0,Calm,Calm,-,N/A,,Scattered Clouds,0,2013-08-29 00:15:00
8:35 PM,73.4,71.6,94,29.87,5.0,Calm,Calm,-,N/A,,Mostly Cloudy,0,2013-08-29 00:35:00
8:55 PM,73.4,71.6,94,29.87,5.0,Calm,Calm,-,N/A,,Scattered Clouds,0,2013-08-29 00:55:00
9:15 PM,73.4,71.6,94,29.87,5.0,Calm,Calm,-,N/A,,Clear,0,2013-08-29 01:15:00
9:35 PM,71.6,71.6,100,29.87,3.0,Calm,Calm,-,N/A,,Clear,0,2013-08-29 01:35:00
9:55 PM,71.6,71.6,100,29.87,3.0,Calm,Calm,-,N/A,,Clear,0,2013-08-29 01:55:00
10:15 PM,71.6,71.6,100,29.88,2.5,Calm,Calm,-,N/A,,Clear,0,2013-08-29 02:15:00
10:35 PM,71.6,71.6,100,29.88,3.0,Calm,Calm,-,N/A,,Clear,0,2013-08-29 02:35:00
10:55 PM,69.8,69.8,100,29.88,1.8,Calm,Calm,-,N/A,,Clear,0,2013-08-29 02:55:00
11:15 PM,69.8,69.8,100,29.88,3.0,Calm,Calm,-,N/A,,Mostly Cloudy,0,2013-08-29 03:15:00
11:35 PM,69.8,69.8,100,29.88,2.5,Calm,Calm,-,N/A,,Mostly Cloudy,0,2013-08-29 03:35:00
11:55 PM,71.6,71.6,100,29.88,3.0,Calm,Calm,-,N/A,,Overcast,0,2013-08-29 03:55:00